Location: Newark
(50.4348°N, 30.5552°E)
Time: 01:56:16
(UTC+00:00)

Vanguard 3 - Pass Details

Date: 26 January 2020
Orbit: 508 x 3263 km, 33.3° (Epoch: 21 February)

Event Time Altitude Azimuth Distance (km) Brightness Sun altitude
Rises 16:55:20 0° 248° (WSW) 7,168 13.2 -21.4°
Reaches altitude 10° 17:00:30 10° 242° (WSW) 6,200 12.5 -22.2°
Maximum altitude 17:18:02 43° 181° (S) 3,699 10.4 -25.0°
Enters shadow 17:26:38 25° 131° (SE) 4,018 10.2 -26.4°
